Location: Mantova
(45.1500°N, 10.8000°E)
Time: 14:35:07
(UTC+01:00)

ISS - Visible Passes

Search period start: 24 January 2019 00:00
Search period end: 03 February 2019 00:00
Orbit: 404 x 410 km, 51.6° (Epoch: 24 January)

Date Brightness Start Highest point End Pass type
(mag) Time Alt. Az. Time Alt. Az. Time Alt. Az.
24 Jan -2.0 17:46:56 10° S 17:49:21 19° SE 17:51:47 10° E visible
24 Jan -2.8 19:22:18 10° WSW 19:24:47 46° W 19:24:47 46° W visible
25 Jan -3.8 18:30:56 10° SW 18:34:13 74° SSE 18:35:41 30° ENE visible
25 Jan -0.4 20:07:59 10° WNW 20:08:24 13° WNW 20:08:24 13° WNW visible
26 Jan -2.7 19:16:20 10° W 19:19:13 39° NNW 19:19:13 39° NNW visible
27 Jan -3.4 18:24:44 10° WSW 18:28:00 56° NNW 18:30:00 21° NE visible
27 Jan -0.6 20:02:08 10° WNW 20:02:43 13° WNW 20:02:43 13° WNW visible
28 Jan -2.4 19:10:28 10° WNW 19:13:24 29° N 19:13:26 29° N visible
29 Jan -2.7 18:18:45 10° W 18:21:50 35° NNW 18:24:07 15° NE visible
29 Jan -0.8 19:56:07 10° NW 19:56:50 14° NW 19:56:50 14° NW visible
30 Jan -2.3 19:04:30 10° WNW 19:07:20 25° N 19:07:30 25° N visible
31 Jan -2.3 18:12:49 10° WNW 18:15:42 27° N 18:18:09 13° NE visible
31 Jan -1.1 19:49:52 10° NW 19:50:52 17° NW 19:50:52 17° NW visible
01 Feb -2.5 18:58:22 10° NW 19:01:14 26° N 19:01:32 26° NNE visible
02 Feb -2.3 18:06:45 10° WNW 18:09:34 25° N 18:12:12 11° ENE visible
02 Feb -1.6 19:43:27 10° NW 19:44:55 23° NW 19:44:55 23° NW visible
